Year,Month,Day,Hour,Minute,Value (Times are PST for temperature in C)
2007,07,09,00,00,14.50
2007,07,09,00,01,14.40
2007,07,09,00,02,14.40
2007,07,09,00,03,14.40
2007,07,09,00,04,14.40
2007,07,09,00,05,14.40
2007,07,09,00,06,14.30
2007,07,09,00,07,14.30
2007,07,09,00,08,14.20
2007,07,09,00,09,14.20
2007,07,09,00,10,14.20
2007,07,09,00,11,14.20
2007,07,09,00,12,14.20
2007,07,09,00,13,14.10
2007,07,09,00,14,14.10
2007,07,09,00,15,14.10
2007,07,09,00,16,14.00
2007,07,09,00,17,14.00
2007,07,09,00,18,14.00
2007,07,09,00,19,14.00
2007,07,09,00,20,14.00
2007,07,09,00,21,14.00
2007,07,09,00,22,14.00
2007,07,09,00,23,14.00
2007,07,09,00,24,14.00
2007,07,09,00,25,14.00
2007,07,09,00,26,13.90
2007,07,09,00,27,13.90
2007,07,09,00,28,13.90
2007,07,09,00,29,13.90
2007,07,09,00,30,13.90
2007,07,09,00,31,13.90
2007,07,09,00,32,13.90
2007,07,09,00,33,13.90
2007,07,09,00,34,13.90
2007,07,09,00,35,13.90
2007,07,09,00,36,13.90
2007,07,09,00,37,13.80
2007,07,09,00,38,13.80
2007,07,09,00,39,13.80
2007,07,09,00,40,13.80
2007,07,09,00,41,13.80
2007,07,09,00,42,13.80
2007,07,09,00,43,13.80
2007,07,09,00,44,13.80
2007,07,09,00,45,13.80
2007,07,09,00,46,13.80
2007,07,09,00,47,13.80
2007,07,09,00,48,13.80
2007,07,09,00,49,13.80
2007,07,09,00,50,13.80
2007,07,09,00,51,13.80
2007,07,09,00,52,13.80
2007,07,09,00,53,13.80
2007,07,09,00,54,13.80
2007,07,09,00,55,13.90
2007,07,09,00,56,13.90
2007,07,09,00,57,13.90
2007,07,09,00,58,13.90
2007,07,09,00,59,13.90
2007,07,09,01,00,13.90
2007,07,09,01,01,13.80
2007,07,09,01,02,13.80
2007,07,09,01,03,13.80
2007,07,09,01,04,13.80
2007,07,09,01,05,13.80
2007,07,09,01,06,13.80
2007,07,09,01,07,13.70
2007,07,09,01,08,13.70
2007,07,09,01,09,13.70
2007,07,09,01,10,13.70
2007,07,09,01,11,13.70
2007,07,09,01,12,13.70
2007,07,09,01,13,13.70
2007,07,09,01,14,13.70
2007,07,09,01,15,13.60
2007,07,09,01,16,13.60
2007,07,09,01,17,13.60
2007,07,09,01,18,13.60
2007,07,09,01,19,13.60
2007,07,09,01,20,13.50
2007,07,09,01,21,13.50
2007,07,09,01,22,13.50
2007,07,09,01,23,13.50
2007,07,09,01,24,13.40
2007,07,09,01,25,13.40
2007,07,09,01,26,13.40
2007,07,09,01,27,13.40
2007,07,09,01,28,13.40
2007,07,09,01,29,13.30
2007,07,09,01,30,13.30
2007,07,09,01,31,13.30
2007,07,09,01,32,13.30
2007,07,09,01,33,13.30
2007,07,09,01,34,13.30
2007,07,09,01,35,13.30
2007,07,09,01,36,13.20
2007,07,09,01,37,13.20
2007,07,09,01,38,13.20
2007,07,09,01,39,13.20
2007,07,09,01,40,13.20
2007,07,09,01,41,13.20
2007,07,09,01,42,13.20
2007,07,09,01,43,13.20
2007,07,09,01,44,13.10
2007,07,09,01,45,13.10
2007,07,09,01,46,13.10
2007,07,09,01,47,13.10
2007,07,09,01,48,13.10
2007,07,09,01,49,13.00
2007,07,09,01,50,13.00
2007,07,09,01,51,13.00
2007,07,09,01,52,13.00
2007,07,09,01,53,13.00
2007,07,09,01,54,12.90
2007,07,09,01,55,12.90
2007,07,09,01,56,12.90
2007,07,09,01,57,12.90
2007,07,09,01,58,12.90
2007,07,09,01,59,12.80
2007,07,09,02,00,12.80
2007,07,09,02,01,12.80
2007,07,09,02,02,12.80
2007,07,09,02,03,12.80
2007,07,09,02,04,12.80
2007,07,09,02,05,12.80
2007,07,09,02,06,12.80
2007,07,09,02,07,12.80
2007,07,09,02,08,12.80
2007,07,09,02,09,12.80
2007,07,09,02,10,12.70
2007,07,09,02,11,12.70
2007,07,09,02,12,12.70
2007,07,09,02,13,12.70
2007,07,09,02,14,12.70
2007,07,09,02,15,12.70
2007,07,09,02,16,12.70
2007,07,09,02,17,12.70
2007,07,09,02,18,12.70
2007,07,09,02,19,12.70
2007,07,09,02,20,12.70
2007,07,09,02,21,12.60
2007,07,09,02,22,12.60
2007,07,09,02,23,12.60
2007,07,09,02,24,12.50
2007,07,09,02,25,12.50
2007,07,09,02,26,12.50
2007,07,09,02,27,12.50
2007,07,09,02,28,12.50
2007,07,09,02,29,12.50
2007,07,09,02,30,12.50
2007,07,09,02,31,12.50
2007,07,09,02,32,12.50
2007,07,09,02,33,12.40
2007,07,09,02,34,12.40
2007,07,09,02,35,12.40
2007,07,09,02,36,12.40
2007,07,09,02,37,12.40
2007,07,09,02,38,12.40
2007,07,09,02,39,12.40
2007,07,09,02,40,12.40
2007,07,09,02,41,12.40
2007,07,09,02,42,12.40
2007,07,09,02,43,12.40
2007,07,09,02,44,12.30
2007,07,09,02,45,12.30
2007,07,09,02,46,12.30
2007,07,09,02,47,12.30
2007,07,09,02,48,12.30
2007,07,09,02,49,12.30
2007,07,09,02,50,12.30
2007,07,09,02,51,12.30
2007,07,09,02,52,12.30
2007,07,09,02,53,12.30
2007,07,09,02,54,12.30
2007,07,09,02,55,12.30
2007,07,09,02,56,12.30
2007,07,09,02,57,12.30
2007,07,09,02,58,12.30
2007,07,09,02,59,12.30
2007,07,09,03,00,12.30
2007,07,09,03,01,12.30
2007,07,09,03,02,12.30
2007,07,09,03,03,12.30
2007,07,09,03,04,12.30
2007,07,09,03,05,12.30
2007,07,09,03,06,12.30
2007,07,09,03,07,12.30
2007,07,09,03,08,12.30
2007,07,09,03,09,12.30
2007,07,09,03,10,12.30
2007,07,09,03,11,12.30
2007,07,09,03,12,12.30
2007,07,09,03,13,12.30
2007,07,09,03,14,12.30
2007,07,09,03,15,12.30
2007,07,09,03,16,12.30
2007,07,09,03,17,12.30
2007,07,09,03,18,12.30
2007,07,09,03,19,12.30
2007,07,09,03,20,12.30
2007,07,09,03,21,12.30
2007,07,09,03,22,12.30
2007,07,09,03,23,12.30
2007,07,09,03,24,12.30
2007,07,09,03,25,12.30
2007,07,09,03,26,12.30
2007,07,09,03,27,12.30
2007,07,09,03,28,12.30
2007,07,09,03,29,12.30
2007,07,09,03,30,12.30
2007,07,09,03,31,12.30
2007,07,09,03,32,12.30
2007,07,09,03,33,12.30
2007,07,09,03,34,12.30
2007,07,09,03,35,12.30
2007,07,09,03,36,12.30
2007,07,09,03,37,12.30
2007,07,09,03,38,12.30
2007,07,09,03,39,12.30
2007,07,09,03,40,12.30
2007,07,09,03,41,12.30
2007,07,09,03,42,12.30
2007,07,09,03,43,12.30
2007,07,09,03,44,12.30
2007,07,09,03,45,12.30
2007,07,09,03,46,12.30
2007,07,09,03,47,12.30
2007,07,09,03,48,12.30
2007,07,09,03,49,12.30
2007,07,09,03,50,12.30
2007,07,09,03,51,12.30
2007,07,09,03,52,12.30
2007,07,09,03,53,12.30
2007,07,09,03,54,12.30
2007,07,09,03,55,12.30
2007,07,09,03,56,12.30
2007,07,09,03,57,12.40
2007,07,09,03,58,12.40
2007,07,09,03,59,12.40
2007,07,09,04,00,12.40
2007,07,09,04,01,12.40
2007,07,09,04,02,12.40
2007,07,09,04,03,12.30
2007,07,09,04,04,12.30
2007,07,09,04,05,12.30
2007,07,09,04,06,12.30
2007,07,09,04,07,12.30
2007,07,09,04,08,12.20
2007,07,09,04,09,12.20
2007,07,09,04,10,12.20
2007,07,09,04,11,12.10
2007,07,09,04,12,12.10
2007,07,09,04,13,12.10
2007,07,09,04,14,12.00
2007,07,09,04,15,12.00
2007,07,09,04,16,12.00
2007,07,09,04,17,12.00
2007,07,09,04,18,12.00
2007,07,09,04,19,12.00
2007,07,09,04,20,11.90
2007,07,09,04,21,12.00
2007,07,09,04,22,12.00
2007,07,09,04,23,12.10
2007,07,09,04,24,12.10
2007,07,09,04,25,12.20
2007,07,09,04,26,12.20
2007,07,09,04,27,12.20
2007,07,09,04,28,12.20
2007,07,09,04,29,12.20
2007,07,09,04,30,12.20
2007,07,09,04,31,12.20
2007,07,09,04,32,12.10
2007,07,09,04,33,12.10
2007,07,09,04,34,12.00
2007,07,09,04,35,12.00
2007,07,09,04,36,12.00
2007,07,09,04,37,12.00
2007,07,09,04,38,12.00
2007,07,09,04,39,11.90
2007,07,09,04,40,11.90
2007,07,09,04,41,11.90
2007,07,09,04,42,11.90
2007,07,09,04,43,11.90
2007,07,09,04,44,11.80
2007,07,09,04,45,11.80
2007,07,09,04,46,11.80
2007,07,09,04,47,11.80
2007,07,09,04,48,11.80
2007,07,09,04,49,11.80
2007,07,09,04,50,11.80
2007,07,09,04,51,11.80
2007,07,09,04,52,11.80
2007,07,09,04,53,11.80
2007,07,09,04,54,11.80
2007,07,09,04,55,11.70
2007,07,09,04,56,11.70
2007,07,09,04,57,11.60
2007,07,09,04,58,11.60
2007,07,09,04,59,11.60
2007,07,09,05,00,11.60
2007,07,09,05,01,11.60
2007,07,09,05,02,11.60
2007,07,09,05,03,11.60
2007,07,09,05,04,11.50
2007,07,09,05,05,11.40
2007,07,09,05,06,11.40
2007,07,09,05,07,11.40
2007,07,09,05,08,11.40
2007,07,09,05,09,11.40
2007,07,09,05,10,11.50
2007,07,09,05,11,11.60
2007,07,09,05,12,11.60
2007,07,09,05,13,11.60
2007,07,09,05,14,11.60
2007,07,09,05,15,11.50
2007,07,09,05,16,11.40
2007,07,09,05,17,11.40
2007,07,09,05,18,11.40
2007,07,09,05,19,11.40
2007,07,09,05,20,11.40
2007,07,09,05,21,11.40
2007,07,09,05,22,11.30
2007,07,09,05,23,11.30
2007,07,09,05,24,11.30
2007,07,09,05,25,11.30
2007,07,09,05,26,11.40
2007,07,09,05,27,11.40
2007,07,09,05,28,11.40
2007,07,09,05,29,11.40
2007,07,09,05,30,11.30
2007,07,09,05,31,11.30
2007,07,09,05,32,11.30
2007,07,09,05,33,11.20
2007,07,09,05,34,11.20
2007,07,09,05,35,11.10
2007,07,09,05,36,11.10
2007,07,09,05,37,11.10
2007,07,09,05,38,11.10
2007,07,09,05,39,11.10
2007,07,09,05,40,11.10
2007,07,09,05,41,11.10
2007,07,09,05,42,11.10
2007,07,09,05,43,11.10
2007,07,09,05,44,11.10
2007,07,09,05,45,11.10
2007,07,09,05,46,11.10
2007,07,09,05,47,11.10
2007,07,09,05,48,11.10
2007,07,09,05,49,11.10
2007,07,09,05,50,11.10
2007,07,09,05,51,11.10
2007,07,09,05,52,11.10
2007,07,09,05,53,11.10
2007,07,09,05,54,11.10
2007,07,09,05,55,11.10
2007,07,09,05,56,11.20
2007,07,09,05,57,11.20
2007,07,09,05,58,11.20
2007,07,09,05,59,11.30
2007,07,09,06,00,11.30
2007,07,09,06,01,11.30
2007,07,09,06,02,11.30
2007,07,09,06,03,11.30
2007,07,09,06,04,11.30
2007,07,09,06,05,11.30
2007,07,09,06,06,11.30
2007,07,09,06,07,11.30
2007,07,09,06,08,11.30
2007,07,09,06,09,11.40
2007,07,09,06,10,11.40
2007,07,09,06,11,11.40
2007,07,09,06,12,11.40
2007,07,09,06,13,11.40
2007,07,09,06,14,11.50
2007,07,09,06,15,11.60
2007,07,09,06,16,11.60
2007,07,09,06,17,11.60
2007,07,09,06,18,11.60
2007,07,09,06,19,11.60
2007,07,09,06,20,11.60
2007,07,09,06,21,11.60
2007,07,09,06,22,11.60
2007,07,09,06,23,11.60
2007,07,09,06,24,11.60
2007,07,09,06,25,11.70
2007,07,09,06,26,11.70
2007,07,09,06,27,11.70
2007,07,09,06,28,11.70
2007,07,09,06,29,11.80
2007,07,09,06,30,12.00
2007,07,09,06,31,12.10
2007,07,09,06,32,12.10
2007,07,09,06,33,12.10
2007,07,09,06,34,12.20
2007,07,09,06,35,12.20
2007,07,09,06,36,12.30
2007,07,09,06,37,12.30
2007,07,09,06,38,12.30
2007,07,09,06,39,12.30
2007,07,09,06,40,12.30
2007,07,09,06,41,12.30
2007,07,09,06,42,12.30
2007,07,09,06,43,12.30
2007,07,09,06,44,12.30
2007,07,09,06,45,12.30
2007,07,09,06,46,12.30
2007,07,09,06,47,12.30
2007,07,09,06,48,12.30
2007,07,09,06,49,12.40
2007,07,09,06,50,12.40
2007,07,09,06,51,12.50
2007,07,09,06,52,12.50
2007,07,09,06,53,12.50
2007,07,09,06,54,12.60
2007,07,09,06,55,12.60
2007,07,09,06,56,12.70
2007,07,09,06,57,12.80
2007,07,09,06,58,12.80
2007,07,09,06,59,12.80
2007,07,09,07,00,12.80
2007,07,09,07,01,12.80
2007,07,09,07,02,12.90
2007,07,09,07,03,13.00
2007,07,09,07,04,13.00
2007,07,09,07,05,13.10
2007,07,09,07,06,13.10
2007,07,09,07,07,13.10
2007,07,09,07,08,13.10
2007,07,09,07,09,13.20
2007,07,09,07,10,13.30
2007,07,09,07,11,13.30
2007,07,09,07,12,13.30
2007,07,09,07,13,13.40
2007,07,09,07,14,13.40
2007,07,09,07,15,13.40
2007,07,09,07,16,13.50
2007,07,09,07,17,13.60
2007,07,09,07,18,13.70
2007,07,09,07,19,13.70
2007,07,09,07,20,13.80
2007,07,09,07,21,13.90
2007,07,09,07,22,13.90
2007,07,09,07,23,13.90
2007,07,09,07,24,13.90
2007,07,09,07,25,14.00
2007,07,09,07,26,14.00
2007,07,09,07,27,14.00
2007,07,09,07,28,14.00
2007,07,09,07,29,14.00
2007,07,09,07,30,14.10
2007,07,09,07,31,14.20
2007,07,09,07,32,14.20
2007,07,09,07,33,14.40
2007,07,09,07,34,14.40
2007,07,09,07,35,14.40
2007,07,09,07,36,14.40
2007,07,09,07,37,14.40
2007,07,09,07,38,14.90
2007,07,09,07,39,15.00
2007,07,09,07,40,15.10
2007,07,09,07,41,15.10
2007,07,09,07,42,15.10
2007,07,09,07,43,15.10
2007,07,09,07,44,15.20
2007,07,09,07,45,15.20
2007,07,09,07,46,15.20
2007,07,09,07,47,15.20
2007,07,09,07,48,15.20
2007,07,09,07,49,15.20
2007,07,09,07,50,15.20
2007,07,09,07,51,15.30
2007,07,09,07,52,15.40
2007,07,09,07,53,15.50
2007,07,09,07,54,15.50
2007,07,09,07,55,15.60
2007,07,09,07,56,15.70
2007,07,09,07,57,15.70
2007,07,09,07,58,15.70
2007,07,09,07,59,15.80
2007,07,09,08,00,15.80
2007,07,09,08,01,16.00
2007,07,09,08,02,16.10
2007,07,09,08,03,16.10
2007,07,09,08,04,16.10
2007,07,09,08,05,16.10
2007,07,09,08,06,16.20
2007,07,09,08,07,16.20
2007,07,09,08,08,16.20
2007,07,09,08,09,16.20
2007,07,09,08,10,16.50
2007,07,09,08,11,16.70
2007,07,09,08,12,16.70
2007,07,09,08,13,16.70
2007,07,09,08,14,16.50
2007,07,09,08,15,16.30
2007,07,09,08,16,16.10
2007,07,09,08,17,15.80
2007,07,09,08,18,15.70
2007,07,09,08,19,15.60
2007,07,09,08,20,15.70
2007,07,09,08,21,15.90
2007,07,09,08,22,15.90
2007,07,09,08,23,16.00
2007,07,09,08,24,16.10
2007,07,09,08,25,16.40
2007,07,09,08,26,16.70
2007,07,09,08,27,16.90
2007,07,09,08,28,16.90
2007,07,09,08,29,16.90
2007,07,09,08,30,16.70
2007,07,09,08,31,16.60
2007,07,09,08,32,16.60
2007,07,09,08,33,16.50
2007,07,09,08,34,16.40
2007,07,09,08,35,16.30
2007,07,09,08,36,16.20
2007,07,09,08,37,16.20
2007,07,09,08,38,16.20
2007,07,09,08,39,16.20
2007,07,09,08,40,16.20
2007,07,09,08,41,16.10
2007,07,09,08,42,15.80
2007,07,09,08,43,15.80
2007,07,09,08,44,15.90
2007,07,09,08,45,16.00
2007,07,09,08,46,16.10
2007,07,09,08,47,16.20
2007,07,09,08,48,16.40
2007,07,09,08,49,16.50
2007,07,09,08,50,16.70
2007,07,09,08,51,16.90
2007,07,09,08,52,17.10
2007,07,09,08,53,17.30
2007,07,09,08,54,17.50
2007,07,09,08,55,17.70
2007,07,09,08,56,17.90
2007,07,09,08,57,18.10
2007,07,09,08,58,18.20
2007,07,09,08,59,18.30
2007,07,09,09,00,18.40
2007,07,09,09,01,18.50
2007,07,09,09,02,18.30
2007,07,09,09,03,18.00
2007,07,09,09,04,17.60
2007,07,09,09,05,17.00
2007,07,09,09,06,16.80
2007,07,09,09,07,16.70
2007,07,09,09,08,16.50
2007,07,09,09,09,16.50
2007,07,09,09,10,16.60
2007,07,09,09,11,16.90
2007,07,09,09,12,17.00
2007,07,09,09,13,17.20
2007,07,09,09,14,17.30
2007,07,09,09,15,17.40
2007,07,09,09,16,16.90
2007,07,09,09,17,16.10
2007,07,09,09,18,15.50
2007,07,09,09,19,15.20
2007,07,09,09,20,15.00
2007,07,09,09,21,14.90
2007,07,09,09,22,14.80
2007,07,09,09,23,14.70
2007,07,09,09,24,14.40
2007,07,09,09,25,14.20
2007,07,09,09,26,14.20
2007,07,09,09,27,14.20
2007,07,09,09,28,14.20
2007,07,09,09,29,13.70
2007,07,09,09,30,13.70
2007,07,09,09,31,13.80
2007,07,09,09,32,13.90
2007,07,09,09,33,14.00
2007,07,09,09,34,14.00
2007,07,09,09,35,14.10
2007,07,09,09,36,14.10
2007,07,09,09,37,14.20
2007,07,09,09,38,14.20
2007,07,09,09,39,14.30
2007,07,09,09,40,14.20
2007,07,09,09,41,14.20
2007,07,09,09,42,14.20
2007,07,09,09,43,14.20
2007,07,09,09,44,14.20
2007,07,09,09,45,14.20
2007,07,09,09,46,14.20
2007,07,09,09,47,14.20
2007,07,09,09,48,14.40
2007,07,09,09,49,14.50
2007,07,09,09,50,14.60
2007,07,09,09,51,14.80
2007,07,09,09,52,14.90
2007,07,09,09,53,15.00
2007,07,09,09,54,15.10
2007,07,09,09,55,15.10
2007,07,09,09,56,15.10
2007,07,09,09,57,14.90
2007,07,09,09,58,14.70
2007,07,09,09,59,14.40
2007,07,09,10,00,14.20
2007,07,09,10,01,14.00
2007,07,09,10,02,14.00
2007,07,09,10,03,14.00
2007,07,09,10,04,14.00
2007,07,09,10,05,14.00
2007,07,09,10,06,13.90
2007,07,09,10,07,13.90
2007,07,09,10,08,13.90
2007,07,09,10,09,14.00
2007,07,09,10,10,14.00
2007,07,09,10,11,14.00
2007,07,09,10,12,13.80
2007,07,09,10,13,13.80
2007,07,09,10,14,13.80
2007,07,09,10,15,13.80
2007,07,09,10,16,13.90
2007,07,09,10,17,13.90
2007,07,09,10,18,14.00
2007,07,09,10,19,14.20
2007,07,09,10,20,14.30
2007,07,09,10,21,14.50
2007,07,09,10,22,14.60
2007,07,09,10,23,14.70
2007,07,09,10,24,14.90
2007,07,09,10,25,15.10
2007,07,09,10,26,15.20
2007,07,09,10,27,15.30
2007,07,09,10,28,15.40
2007,07,09,10,29,15.40
2007,07,09,10,30,15.40
2007,07,09,10,31,15.50
2007,07,09,10,32,15.50
2007,07,09,10,33,15.50
2007,07,09,10,34,15.10
2007,07,09,10,35,14.90
2007,07,09,10,36,14.90
2007,07,09,10,37,14.90
2007,07,09,10,38,14.90
2007,07,09,10,39,15.00
2007,07,09,10,40,15.10
2007,07,09,10,41,15.10
2007,07,09,10,42,15.20
2007,07,09,10,43,15.20
2007,07,09,10,44,15.30
2007,07,09,10,45,15.30
2007,07,09,10,46,15.20
2007,07,09,10,47,15.00
2007,07,09,10,48,14.90
2007,07,09,10,49,14.80
2007,07,09,10,50,14.80
2007,07,09,10,51,14.80
2007,07,09,10,52,14.80
2007,07,09,10,53,14.80
2007,07,09,10,54,14.80
2007,07,09,10,55,14.90
2007,07,09,10,56,14.90
2007,07,09,10,57,14.90
2007,07,09,10,58,15.00
2007,07,09,10,59,15.10
2007,07,09,11,00,15.30
2007,07,09,11,01,15.30
2007,07,09,11,02,15.40
2007,07,09,11,03,15.40
2007,07,09,11,04,15.60
2007,07,09,11,05,15.70
2007,07,09,11,06,15.70
2007,07,09,11,07,15.70
2007,07,09,11,08,16.30
2007,07,09,11,09,16.60
2007,07,09,11,10,16.70
2007,07,09,11,11,17.20
2007,07,09,11,12,17.60
2007,07,09,11,13,18.10
2007,07,09,11,14,18.60
2007,07,09,11,15,18.90
2007,07,09,11,16,19.10
2007,07,09,11,17,19.20
2007,07,09,11,18,19.40
2007,07,09,11,19,19.70
2007,07,09,11,20,20.00
2007,07,09,11,21,20.20
2007,07,09,11,22,20.20
2007,07,09,11,23,20.40
2007,07,09,11,24,20.50
2007,07,09,11,25,20.50
2007,07,09,11,26,20.40
2007,07,09,11,27,20.40
2007,07,09,11,28,20.40
2007,07,09,11,29,20.50
2007,07,09,11,30,20.50
2007,07,09,11,31,20.50
2007,07,09,11,32,20.50
2007,07,09,11,33,20.60
2007,07,09,11,34,20.70
2007,07,09,11,35,20.80
2007,07,09,11,36,20.90
2007,07,09,11,37,21.00
2007,07,09,11,38,21.00
2007,07,09,11,39,21.00
2007,07,09,11,40,21.00
2007,07,09,11,41,21.00
2007,07,09,11,42,21.10
2007,07,09,11,43,21.20
2007,07,09,11,44,21.20
2007,07,09,11,45,21.30
2007,07,09,11,46,21.40
2007,07,09,11,47,21.40
2007,07,09,11,48,21.40
2007,07,09,11,49,21.40
2007,07,09,11,50,21.30
2007,07,09,11,51,21.30
2007,07,09,11,52,21.30
2007,07,09,11,53,21.30
2007,07,09,11,54,21.40
2007,07,09,11,55,21.50
2007,07,09,11,56,21.60
2007,07,09,11,57,21.60
2007,07,09,11,58,21.60
2007,07,09,11,59,21.60
2007,07,09,12,00,21.70
2007,07,09,12,01,21.70
2007,07,09,12,02,21.70
2007,07,09,12,03,21.70
2007,07,09,12,04,21.70
2007,07,09,12,05,21.70
2007,07,09,12,06,21.70
2007,07,09,12,07,21.70
2007,07,09,12,08,21.70
2007,07,09,12,09,21.80
2007,07,09,12,10,21.90
2007,07,09,12,11,21.90
2007,07,09,12,12,22.00
2007,07,09,12,13,21.90
2007,07,09,12,14,21.80
2007,07,09,12,15,21.80
2007,07,09,12,16,21.90
2007,07,09,12,17,22.00
2007,07,09,12,18,22.10
2007,07,09,12,19,22.20
2007,07,09,12,20,22.30
2007,07,09,12,21,22.40
2007,07,09,12,22,22.50
2007,07,09,12,23,22.50
2007,07,09,12,24,22.50
2007,07,09,12,25,22.40
2007,07,09,12,26,22.30
2007,07,09,12,27,22.30
2007,07,09,12,28,22.30
2007,07,09,12,29,22.20
2007,07,09,12,30,22.20
2007,07,09,12,31,22.20
2007,07,09,12,32,22.20
2007,07,09,12,33,22.40
2007,07,09,12,34,22.20
2007,07,09,12,35,21.80
2007,07,09,12,36,21.30
2007,07,09,12,37,20.70
2007,07,09,12,38,20.20
2007,07,09,12,39,20.10
2007,07,09,12,40,19.90
2007,07,09,12,41,19.80
2007,07,09,12,42,19.60
2007,07,09,12,43,19.50
2007,07,09,12,44,19.40
2007,07,09,12,45,19.20
2007,07,09,12,46,19.10
2007,07,09,12,47,19.10
2007,07,09,12,48,19.20
2007,07,09,12,49,19.30
2007,07,09,12,50,19.40
2007,07,09,12,51,19.60
2007,07,09,12,52,19.70
2007,07,09,12,53,19.80
2007,07,09,12,54,19.90
2007,07,09,12,55,19.90
2007,07,09,12,56,20.10
2007,07,09,12,57,20.00
2007,07,09,12,58,20.10
2007,07,09,12,59,20.30
2007,07,09,13,00,20.70
2007,07,09,13,01,21.10
2007,07,09,13,02,21.40
2007,07,09,13,03,21.70
2007,07,09,13,04,22.10
2007,07,09,13,05,22.40
2007,07,09,13,06,22.60
2007,07,09,13,07,22.80
2007,07,09,13,08,22.70
2007,07,09,13,09,22.60
2007,07,09,13,10,22.60
2007,07,09,13,11,22.70
2007,07,09,13,12,22.80
2007,07,09,13,13,23.00
2007,07,09,13,14,23.10
2007,07,09,13,15,23.10
2007,07,09,13,16,23.10
2007,07,09,13,17,23.10
2007,07,09,13,18,23.10
2007,07,09,13,19,23.10
2007,07,09,13,20,23.10
2007,07,09,13,21,23.10
2007,07,09,13,22,22.90
2007,07,09,13,23,22.90
2007,07,09,13,24,22.90
2007,07,09,13,25,23.00
2007,07,09,13,26,23.10
2007,07,09,13,27,23.10
2007,07,09,13,28,23.10
2007,07,09,13,29,23.10
2007,07,09,13,30,23.20
2007,07,09,13,31,23.30
2007,07,09,13,32,23.20
2007,07,09,13,33,23.20
2007,07,09,13,34,23.30
2007,07,09,13,35,23.40
2007,07,09,13,36,23.40
2007,07,09,13,37,23.50
2007,07,09,13,38,23.60
2007,07,09,13,39,23.30
2007,07,09,13,40,23.20
2007,07,09,13,41,23.00
2007,07,09,13,42,22.90
2007,07,09,13,43,22.90
2007,07,09,13,44,23.00
2007,07,09,13,45,23.10
2007,07,09,13,46,22.90
2007,07,09,13,47,23.00
2007,07,09,13,48,23.10
2007,07,09,13,49,23.30
2007,07,09,13,50,23.50
2007,07,09,13,51,23.70
2007,07,09,13,52,23.90
2007,07,09,13,53,24.00
2007,07,09,13,54,24.20
2007,07,09,13,55,24.40
2007,07,09,13,56,24.50
2007,07,09,13,57,24.50
2007,07,09,13,58,24.40
2007,07,09,13,59,24.40
2007,07,09,14,00,24.20
2007,07,09,14,01,24.20
2007,07,09,14,02,24.20
2007,07,09,14,03,24.10
2007,07,09,14,04,24.10
2007,07,09,14,05,24.10
2007,07,09,14,06,24.10
2007,07,09,14,07,24.10
2007,07,09,14,08,24.10
2007,07,09,14,09,24.10
2007,07,09,14,10,24.10
2007,07,09,14,11,24.20
2007,07,09,14,12,24.20
2007,07,09,14,13,24.20
2007,07,09,14,14,24.20
2007,07,09,14,15,24.20
2007,07,09,14,16,24.20
2007,07,09,14,17,24.30
2007,07,09,14,18,24.30
2007,07,09,14,19,24.30
2007,07,09,14,20,24.40
2007,07,09,14,21,24.40
2007,07,09,14,22,24.50
2007,07,09,14,23,24.60
2007,07,09,14,24,24.70
2007,07,09,14,25,24.80
2007,07,09,14,26,24.90
2007,07,09,14,27,25.00
2007,07,09,14,28,25.10
2007,07,09,14,29,25.30
2007,07,09,14,30,25.30
2007,07,09,14,31,25.30
2007,07,09,14,32,25.40
2007,07,09,14,33,25.50
2007,07,09,14,34,25.50
2007,07,09,14,35,25.60
2007,07,09,14,36,25.60
2007,07,09,14,37,25.70
2007,07,09,14,38,25.60
2007,07,09,14,39,25.50
2007,07,09,14,40,25.40
2007,07,09,14,41,25.20
2007,07,09,14,42,25.00
2007,07,09,14,43,24.80
2007,07,09,14,44,24.70
2007,07,09,14,45,24.50
2007,07,09,14,46,24.50
2007,07,09,14,47,24.40
2007,07,09,14,48,24.10
2007,07,09,14,49,23.60
2007,07,09,14,50,23.20
2007,07,09,14,51,22.90
2007,07,09,14,52,22.60
2007,07,09,14,53,22.50
2007,07,09,14,54,22.30
2007,07,09,14,55,22.30
2007,07,09,14,56,22.30
2007,07,09,14,57,22.30
2007,07,09,14,58,22.30
2007,07,09,14,59,22.20
2007,07,09,15,00,22.10
2007,07,09,15,01,21.90
2007,07,09,15,02,21.80
2007,07,09,15,03,21.70
2007,07,09,15,04,21.60
2007,07,09,15,05,21.50
2007,07,09,15,06,21.40
2007,07,09,15,07,21.50
2007,07,09,15,08,21.60
2007,07,09,15,09,21.60
2007,07,09,15,10,21.70
2007,07,09,15,11,22.00
2007,07,09,15,12,22.10
2007,07,09,15,13,22.20
2007,07,09,15,14,22.20
2007,07,09,15,15,22.20
2007,07,09,15,16,22.30
2007,07,09,15,17,22.30
2007,07,09,15,18,22.30
2007,07,09,15,19,22.30
2007,07,09,15,20,22.20
2007,07,09,15,21,22.20
2007,07,09,15,22,22.10
2007,07,09,15,23,22.10
2007,07,09,15,24,22.20
2007,07,09,15,25,22.20
2007,07,09,15,26,22.20
2007,07,09,15,27,22.20
2007,07,09,15,28,22.20
2007,07,09,15,29,22.20
2007,07,09,15,30,22.10
2007,07,09,15,31,22.00
2007,07,09,15,32,22.00
2007,07,09,15,33,22.10
2007,07,09,15,34,22.10
2007,07,09,15,35,22.10
2007,07,09,15,36,22.00
2007,07,09,15,37,22.00
2007,07,09,15,38,21.90
2007,07,09,15,39,21.90
2007,07,09,15,40,22.00
2007,07,09,15,41,22.00
2007,07,09,15,42,21.90
2007,07,09,15,43,21.90
2007,07,09,15,44,21.70
2007,07,09,15,45,21.70
2007,07,09,15,46,21.60
2007,07,09,15,47,21.60
2007,07,09,15,48,21.60
2007,07,09,15,49,21.60
2007,07,09,15,50,21.60
2007,07,09,15,51,21.60
2007,07,09,15,52,21.70
2007,07,09,15,53,21.70
2007,07,09,15,54,21.70
2007,07,09,15,55,21.70
2007,07,09,15,56,21.90
2007,07,09,15,57,22.00
2007,07,09,15,58,22.20
2007,07,09,15,59,22.30
2007,07,09,16,00,22.40
2007,07,09,16,01,22.40
2007,07,09,16,02,22.40
2007,07,09,16,03,22.40
2007,07,09,16,04,22.40
2007,07,09,16,05,22.40
2007,07,09,16,06,22.50
2007,07,09,16,07,22.50
2007,07,09,16,08,22.50
2007,07,09,16,09,22.50
2007,07,09,16,10,22.60
2007,07,09,16,11,22.70
2007,07,09,16,12,22.70
2007,07,09,16,13,22.70
2007,07,09,16,14,22.70
2007,07,09,16,15,22.70
2007,07,09,16,16,22.70
2007,07,09,16,17,22.70
2007,07,09,16,18,22.80
2007,07,09,16,19,22.90
2007,07,09,16,20,22.90
2007,07,09,16,21,22.90
2007,07,09,16,22,22.90
2007,07,09,16,23,22.90
2007,07,09,16,24,22.80
2007,07,09,16,25,22.60
2007,07,09,16,26,22.50
2007,07,09,16,27,22.50
2007,07,09,16,28,22.50
2007,07,09,16,29,22.30
2007,07,09,16,30,22.10
2007,07,09,16,31,21.70
2007,07,09,16,32,21.60
2007,07,09,16,33,21.50
2007,07,09,16,34,21.30
2007,07,09,16,35,21.30
2007,07,09,16,36,21.30
2007,07,09,16,37,21.30
2007,07,09,16,38,21.30
2007,07,09,16,39,21.40
2007,07,09,16,40,21.50
2007,07,09,16,41,21.50
2007,07,09,16,42,21.60
2007,07,09,16,43,21.60
2007,07,09,16,44,21.70
2007,07,09,16,45,21.80
2007,07,09,16,46,21.90
2007,07,09,16,47,22.00
2007,07,09,16,48,22.20
2007,07,09,16,49,22.30
2007,07,09,16,50,22.30
2007,07,09,16,51,22.30
2007,07,09,16,52,22.20
2007,07,09,16,53,22.20
2007,07,09,16,54,22.20
2007,07,09,16,55,22.30
2007,07,09,16,56,22.50
2007,07,09,16,57,22.50
2007,07,09,16,58,22.70
2007,07,09,16,59,22.90
2007,07,09,17,00,22.90
2007,07,09,17,01,23.00
2007,07,09,17,02,22.90
2007,07,09,17,03,22.80
2007,07,09,17,04,22.80
2007,07,09,17,05,22.80
2007,07,09,17,06,22.90
2007,07,09,17,07,22.90
2007,07,09,17,08,22.90
2007,07,09,17,09,22.70
2007,07,09,17,10,22.60
2007,07,09,17,11,22.50
2007,07,09,17,12,22.40
2007,07,09,17,13,22.40
2007,07,09,17,14,22.40
2007,07,09,17,15,22.40
2007,07,09,17,16,22.40
2007,07,09,17,17,22.30
2007,07,09,17,18,22.20
2007,07,09,17,19,22.30